VK8HF Weather Reports


Display with metric or nautical units.
time (UTC)temp
F
wind
direction
speed
MPH
gust
MPH
rain 1hr
in
rain 24hr
in
rain mn
in
humidity
%
barometer
mb
20260508174510 74 235 1.0 5.0 0.00 0.00 0.00 68 1011.0
20260508173017 74 209 2.0 6.0 0.00 0.00 0.00 68 1011.0
20260508171519 74 237 2.0 5.0 0.00 0.00 0.00 69 1011.1
20260508170008 73 225 0.0 4.0 0.00 0.00 0.00 69 1011.2
20260508164510 74 248 0.0 4.0 0.00 0.00 0.00 69 1011.2
20260508163012 74 261 1.0 6.0 0.00 0.00 0.00 68 1011.3
20260508161506 74 238 0.0 4.0 0.00 0.00 0.00 68 1011.5
20260508160005 74 237 1.0 5.0 0.00 0.00 0.00 68 1011.5
20260508154508 75 221 2.0 9.0 0.00 0.00 0.00 68 1011.7
20260508153008 75 246 1.0 5.0 0.00 0.00 0.00 68 1011.8
20260508151506 75 257 1.0 5.0 0.00 0.00 0.00 68 1011.9
20260508150008 75 269 0.0 5.0 0.00 0.00 0.00 68 1011.9
20260508144505 75 261 0.0 3.0 0.00 0.00 0.00 67 1011.9
20260508143016 76 266 0.0 6.0 0.00 0.00 0.00 67 1011.9
20260508141504 76 256 0.0 1.0 0.00 0.00 0.00 68 1011.9
20260508140004 76 275 0.0 6.0 0.00 0.00 0.00 67 1012.1
20260508134503 77 278 1.0 4.0 0.00 0.00 0.00 67 1012.2
20260508133002 78 277 1.0 5.0 0.00 0.00 0.00 64 1012.3
20260508131502 78 259 2.0 5.0 0.00 0.00 0.00 62 1012.3
20260508130001 78 249 0.0 5.0 0.00 0.00 0.00 63 1012.3
20260508124501 77 228 0.0 4.0 0.00 0.00 0.00 65 1012.3
20260508123002 76 252 0.0 2.0 0.00 0.00 0.00 70 1012.3
20260508121602 72 223 0.0 0.0 0.00 0.00 0.00 79 1012.3
20260508120100 72 223 0.0 0.0 0.00 0.00 0.00 81 1012.4
20260508114559 72 223 0.0 0.0 0.00 0.00 0.00 80 1012.2
20260508113059 72 223 0.0 0.0 0.00 0.00 0.00 80 1012.2
20260508111603 73 223 0.0 0.0 0.00 0.00 0.00 80 1012.0
20260508110057 73 223 0.0 0.0 0.00 0.00 0.00 80 1011.8
20260508104553 74 223 0.0 0.0 0.00 0.00 0.00 79 1011.7
20260508103053 74 223 0.0 0.0 0.00 0.00 0.00 77 1011.4
20260508101552 75 223 0.0 0.0 0.00 0.00 0.00 76 1011.3
20260508100052 76 223 0.0 0.0 0.00 0.00 0.00 76 1011.1
20260508094604 76 223 0.0 0.0 0.00 0.00 0.00 74 1011.0
20260508093052 78 223 0.0 0.0 0.00 0.00 0.00 73 1010.8
20260508091550 80 223 0.0 0.0 0.00 0.00 0.00 66 1010.7
20260508090048 82 223 0.0 0.0 0.00 0.00 0.00 61 1010.5
20260508084547 84 223 0.0 0.0 0.00 0.00 0.00 57 1010.3
20260508083046 85 223 0.0 3.0 0.00 0.00 0.00 53 1010.2
20260508081602 86 227 0.0 6.0 0.00 0.00 0.00 51 1010.1
20260508080046 87 256 1.0 5.0 0.00 0.00 0.00 49 1010.0
20260508074544 88 219 0.0 5.0 0.00 0.00 0.00 48 1009.8
20260508073044 88 216 3.0 7.0 0.00 0.00 0.00 47 1009.8
20260508071544 88 244 3.0 10.0 0.00 0.00 0.00 46 1009.7
20260508070046 88 227 0.0 8.0 0.00 0.00 0.00 47 1009.7
20260508064542 88 249 2.0 8.0 0.00 0.00 0.00 46 1009.6
20260508063041 88 264 1.0 8.0 0.00 0.00 0.00 46 1009.6
20260508061540 88 271 3.0 9.0 0.00 0.00 0.00 46 1009.6
20260508060038 89 196 1.0 8.0 0.00 0.00 0.00 47 1009.7
20260508054543 88 231 4.0 10.0 0.00 0.00 0.00 46 1009.8
20260508053037 89 217 4.0 9.0 0.00 0.00 0.00 46 1009.9
20260508051534 88 237 3.0 10.0 0.00 0.00 0.00 46 1010.0
20260508050035 88 230 2.0 11.0 0.00 0.00 0.00 47 1010.1
20260508044530 88 222 3.0 12.0 0.00 0.00 0.00 46 1010.2
20260508043028 88 218 3.0 13.0 0.00 0.00 0.00 46 1010.2
20260508041526 88 235 2.0 10.0 0.00 0.00 0.00 46 1010.3
20260508040025 88 189 5.0 10.0 0.00 0.00 0.00 46 1010.5
20260508034529 88 193 3.0 9.0 0.00 0.00 0.00 47 1010.7
20260508033021 87 232 3.0 10.0 0.00 0.00 0.00 47 1011.0
20260508031519 86 231 5.0 11.0 0.00 0.00 0.00 48 1011.2
20260508030014 86 191 7.0 12.0 0.00 0.00 0.00 48 1011.4
20260508024512 85 247 2.0 13.0 0.00 0.00 0.00 49 1011.7
20260508023011 84 187 7.0 18.0 0.00 0.00 0.00 49 1012.1
20260508021506 84 256 6.0 16.0 0.00 0.00 0.00 50 1012.3
20260508020001 83 266 6.0 13.0 0.00 0.00 0.00 50 1012.5
20260508013056 82 192 4.0 14.0 0.00 0.00 0.00 52 1012.9
20260508011600 81 282 6.0 12.0 0.00 0.00 0.00 52 1013.0
20260508010051 80 209 6.0 16.0 0.00 0.00 0.00 52 1013.1
20260508003047 79 240 5.0 11.0 0.00 0.00 0.00 52 1013.3
20260508001542 79 244 4.0 12.0 0.00 0.00 0.00 55 1013.3
20260508000037 78 202 4.0 9.0 0.00 0.00 0.00 55 1013.3
20260507233035 75 237 4.0 9.0 0.00 0.00 0.00 59 1013.2
20260507231538 74 231 6.0 11.0 0.00 0.00 0.00 59 1013.1
20260507230027 74 258 4.0 12.0 0.00 0.00 0.00 60 1013.1
20260507223022 72 188 4.0 11.0 0.00 0.00 0.00 62 1013.0
20260507221521 71 263 4.0 10.0 0.00 0.00 0.00 63 1012.7
20260507220024 70 282 3.0 8.0 0.00 0.00 0.00 65 1012.5
20260507213027 69 259 2.0 10.0 0.00 0.00 0.00 66 1012.3
20260507211521 70 285 3.0 9.0 0.00 0.00 0.00 66 1012.3
20260507210020 70 254 3.0 10.0 0.00 0.00 0.00 66 1012.1
20260507203016 70 218 2.0 8.0 0.00 0.00 0.00 66 1011.9
20260507201517 70 254 2.0 6.0 0.00 0.00 0.00 66 1011.9
20260507200023 70 277 1.0 8.0 0.00 0.00 0.00 66 1011.8
20260507193015 70 236 0.0 6.0 0.00 0.00 0.00 66 1011.8
20260507191515 70 261 3.0 8.0 0.00 0.00 0.00 65 1011.7
20260507190014 70 218 2.0 8.0 0.00 0.00 0.00 65 1011.5
20260507183029 71 173 2.0 7.0 0.00 0.00 0.00 66 1011.4
20260507181514 70 258 1.0 7.0 0.00 0.00 0.00 66 1011.5
20260507180012 70 227 2.0 6.0 0.00 0.00 0.00 67 1011.7